User: anonymous   Login
Location: Hepcat Sky Observatory
(29.9800°N, 95.6500°W)
Time: 18:13:49
(UTC-06:00)
Language:

Cosmos 1602 Rocket - Orbit

View from above orbital plane
View from above orbital plane
View from above satellite
View from above satellite

Ground track
Ground track

The orbit data is extracted from the following two-line orbital elements,

1 15332U 84105B   15063.54476813  .00000662  00000-0  78423-4 0  9997
2 15332 082.5320 249.0287 0019988 243.7424 142.0859 14.82990819642720
Epoch (UTC): 04 March 2015 13:04:27
Eccentricity: 0.0019988
inclination: 82.5320°
perigee height: 606 km
apogee height: 634 km
right ascension of ascending node: 249.0287°
argument of perigee: 243.7424°
revolutions per day: 14.82990819
mean anomaly at epoch: 142.0859°
orbit number at epoch: 64272

The dashed part of the orbit path shows where the satellite is in the earth's shadow,  

DLR